Theta_e
302 297 296 300 303 305 305 304 304 306 310 307 307 307 310 313 314 314 315 316 316 319 323 326 327 328 329 332 334 335 335 338 337 335 333 332 332 335 335 337 339 340 339 337
299 295 301 303 304 302 303 302 303 307 309 309 306 305 311 313 314 315 314 315 317 320 323 325 326 327 330 332 334 336 337 339 337 335 336 335 336 335 336 338 339 339 338 338
297 298 302 301 301 300 301 300 302 302 306 308 305 302 307 312 314 315 315 316 316 320 323 325 325 327 330 331 334 335 337 338 338 339 338 338 338 336 334 335 335 337 336 336
298 303 300 299 298 301 297 303 301 300 299 296 305 296 305 309 310 313 314 315 317 321 323 325 326 328 329 331 334 336 337 338 338 341 337 337 332 330 336 335 337 336 336 336
296 298 299 298 299 301 299 302 302 301 299 299 300 297 303 309 307 310 313 315 318 322 323 325 326 327 329 331 333 335 337 337 339 340 339 335 333 334 335 335 334 337 338 337
298 303 301 301 302 302 303 300 302 302 300 293 298 298 299 305 308 311 314 314 319 322 324 325 327 328 329 331 333 334 336 337 339 338 338 335 334 333 332 333 334 337 339 338
296 297 301 302 299 302 301 298 293 291 292 292 302 299 301 309 310 311 311 315 321 323 324 324 325 326 328 329 331 333 335 335 337 336 336 334 335 335 334 332 335 333 333 337
290 290 297 301 299 298 298 299 293 288 291 295 302 296 302 310 312 314 314 315 321 323 324 325 325 327 327 329 331 332 333 333 335 335 334 335 335 335 334 335 335 335 335 338
291 292 301 301 302 302 298 297 303 299 301 295 300 303 305 308 310 311 313 314 319 323 324 324 326 327 327 329 331 332 331 332 333 334 334 335 336 336 334 335 338 338 338 337
295 290 300 300 302 303 302 304 296 298 291 290 296 297 297 305 308 310 313 316 320 323 323 324 325 327 329 330 332 332 331 332 333 334 334 335 335 336 336 336 335 337 336 335
297 294 297 300 297 297 298 298 300 301 298 293 292 295 305 308 310 312 316 318 322 323 323 324 325 327 329 331 331 330 331 331 332 333 335 335 336 336 334 335 336 336 336 336
296 296 293 296 301 303 302 300 301 295 294 297 297 295 308 312 314 316 316 319 322 323 323 324 325 327 327 329 329 328 330 330 332 332 334 334 335 335 334 334 335 336 335 335
293 294 289 293 298 301 299 301 302 302 303 296 293 295 307 312 313 316 318 320 321 323 323 324 324 325 327 328 327 326 328 328 331 331 333 335 334 334 334 334 335 335 335 335
295 291 293 291 294 298 296 298 301 300 296 297 296 297 304 310 312 315 319 320 321 322 323 323 324 325 326 328 326 325 327 329 330 330 332 333 333 334 334 335 335 334 334 332
295 289 294 296 296 296 298 297 298 298 299 296 298 298 301 309 311 314 317 320 320 322 322 323 324 325 326 327 325 325 326 328 329 329 330 333 334 334 334 334 334 334 334 332
296 290 293 292 296 296 295 298 299 299 300 300 300 299 305 309 311 310 316 319 319 321 322 323 324 325 326 326 324 325 326 327 329 328 328 333 333 333 333 333 334 334 333 332
292 291 291 289 295 295 292 297 298 299 301 301 297 302 307 307 309 310 314 318 319 322 323 324 324 326 327 326 326 325 326 327 327 327 328 330 332 331 333 332 332 334 334 333
291 292 292 290 294 285 299 305 303 301 302 303 302 305 307 308 310 313 315 318 321 323 324 326 326 328 329 328 327 327 327 326 325 326 327 329 330 330 332 330 331 334 334 333
295 293 289 289 290 294 299 302 302 301 300 304 305 307 309 310 312 312 315 316 321 325 327 328 329 330 330 328 327 326 325 325 323 324 326 327 330 331 331 329 331 333 334 333
296 294 289 290 288 286 297 303 305 306 298 305 306 306 308 310 303 308 320 322 322 325 328 329 330 330 330 329 328 326 325 324 323 324 325 327 330 332 331 331 330 333 333 333
289 290 286 288 290 294 301 304 306 295 297 306 307 308 309 308 312 317 319 320 323 326 328 331 331 329 331 331 329 325 324 324 324 324 325 327 330 333 335 333 332 332 331 333
288 286 286 288 286 288 303 304 299 301 307 307 308 310 309 312 314 316 318 320 321 323 326 329 329 329 332 331 329 325 324 326 325 325 324 326 329 331 333 334 331 330 331 330
288 292 292 293 292 298 302 302 306 307 306 307 308 310 311 311 313 316 317 322 324 323 326 329 329 330 331 331 330 326 326 326 326 325 325 326 328 329 333 333 331 328 329 325
295 298 294 296 295 296 299 305 306 307 307 308 310 311 312 312 315 316 318 321 325 324 325 328 328 329 329 330 330 329 328 326 326 326 326 327 327 327 331 332 330 327 325 322
291 292 291 295 298 298 300 303 304 305 307 308 310 311 311 313 315 317 320 321 324 324 326 327 327 328 329 330 329 330 329 326 326 327 327 328 326 327 328 331 330 328 331 322
296 292 290 290 299 297 298 302 304 303 305 305 308 309 312 313 314 318 322 324 325 322 325 326 328 329 329 329 329 330 330 328 327 327 327 327 325 326 326 326 328 298 304 306
Wind_Speed
24 21 28 40 34 26 25 29 25 23 18 22 24 24 23 18 20 23 21 21 22 20 17 13 7 4 5 9 12 14 16 16 13 10 9 8 7 6 5 5 7 8 8 9
21 31 48 30 27 29 29 30 28 24 22 24 21 27 26 22 22 22 22 19 20 16 14 10 3 4 7 10 12 15 16 17 12 8 6 4 4 3 4 4 4 7 8 8
34 42 25 32 30 31 32 31 27 30 21 22 22 27 29 24 27 18 16 21 22 16 15 7 6 7 10 12 14 16 17 16 11 9 6 5 3 4 5 5 6 6 6 6
33 34 28 32 34 34 33 27 26 25 23 25 21 25 24 21 19 21 21 20 16 11 5 4 8 10 11 12 14 16 15 14 11 9 7 5 3 4 1 3 2 4 6 6
31 27 36 31 40 28 31 19 23 22 22 25 28 22 20 21 22 24 18 20 13 3 4 7 8 11 13 15 15 15 14 12 11 9 5 5 4 3 3 3 4 6 4 6
29 13 24 40 21 28 20 17 19 19 17 23 23 24 20 20 27 24 18 17 9 8 8 9 11 14 16 16 15 14 13 11 10 8 6 3 4 4 4 3 4 3 4 5
22 29 18 21 29 24 25 22 11 13 16 19 19 19 16 16 13 12 10 10 11 9 11 13 16 16 18 17 16 13 13 11 10 8 6 5 5 4 4 5 2 1 3 5
21 23 32 20 31 24 31 26 12 18 15 16 18 13 17 12 21 23 21 12 9 10 12 15 16 17 18 17 15 13 12 11 10 8 6 6 5 3 2 2 2 3 3 3
19 26 28 22 24 33 27 30 24 13 12 8 14 17 14 19 21 15 12 15 11 11 13 16 18 17 17 16 15 13 11 11 10 7 6 5 4 2 2 0 2 3 3 4
6 11 20 31 25 27 26 23 23 16 20 16 12 12 10 8 11 13 14 14 14 13 16 17 17 18 16 15 13 12 11 11 10 8 6 5 4 2 2 2 3 2 3 4
14 10 15 24 26 26 23 22 21 16 14 16 11 8 9 13 9 11 12 14 14 16 18 18 18 17 16 15 14 11 11 11 10 7 6 5 3 3 4 3 2 4 3 5
8 8 12 27 22 24 28 21 27 13 21 12 9 4 2 6 1 9 11 11 14 17 18 18 19 18 17 15 14 12 11 11 10 8 6 5 3 2 4 4 4 3 4 5
4 11 9 12 24 22 28 23 25 17 15 20 12 2 6 4 5 5 7 12 16 18 19 19 19 17 16 15 13 13 12 10 10 8 7 6 4 3 5 4 5 2 5 6
5 6 15 8 17 10 23 25 24 24 12 12 15 12 7 7 10 8 8 12 16 18 19 19 18 17 16 15 14 13 12 11 10 8 7 7 5 5 5 4 5 5 6 4
5 9 19 19 9 7 14 24 25 24 22 17 12 15 15 8 10 8 4 13 16 18 19 19 19 17 17 15 14 13 12 12 10 9 8 8 7 5 6 6 6 5 6 6
5 2 12 20 15 12 8 10 22 24 22 20 15 17 14 17 16 9 4 11 16 17 18 19 19 19 18 17 15 13 13 12 11 9 9 8 7 7 6 5 6 6 8 7
5 5 6 19 20 10 12 15 15 18 22 19 19 19 14 15 8 9 7 7 15 18 19 20 21 19 17 17 15 15 13 13 12 10 9 9 8 7 6 6 5 8 8 9
9 8 5 8 17 13 8 9 13 13 17 19 19 16 16 12 9 9 9 1 12 16 18 18 17 18 18 17 16 15 14 14 13 11 10 10 10 9 7 6 5 6 7 9
13 10 4 6 12 9 8 10 5 12 10 5 7 9 13 12 14 13 12 9 9 16 14 14 16 18 19 18 17 16 15 14 14 13 11 11 10 9 9 7 6 5 7 8
13 10 6 5 10 19 11 9 5 6 9 8 6 5 6 7 11 8 14 16 7 8 16 15 17 18 19 18 18 17 16 16 15 14 12 11 11 10 10 7 7 5 5 8
9 6 8 6 7 7 12 10 3 12 7 9 8 8 8 9 11 20 16 12 10 10 12 15 18 20 20 20 19 18 16 16 15 14 13 12 11 10 9 8 6 7 5 7
8 6 5 4 4 5 16 3 6 8 7 8 9 10 12 14 15 15 16 13 11 12 12 18 17 19 20 21 19 19 18 16 15 15 14 13 12 9 9 10 8 8 7 7
4 2 2 3 4 3 7 10 9 9 9 9 12 13 13 16 16 14 13 12 10 11 11 15 16 17 20 21 20 20 18 17 16 15 15 14 13 11 10 11 9 8 8 7
7 11 3 6 8 7 7 6 10 13 11 13 12 14 15 15 16 16 13 11 9 10 12 15 18 19 20 21 21 19 19 19 18 16 15 14 13 12 12 10 10 8 8 7
4 6 6 6 6 5 5 9 13 15 15 15 15 15 15 16 16 14 13 11 10 11 13 16 18 19 21 22 21 20 20 20 17 16 15 14 12 13 12 11 10 9 8 6
1 4 4 3 12 6 10 15 16 17 15 17 16 18 16 15 17 17 14 10 9 10 13 15 18 17 19 21 22 21 21 21 19 17 14 13 12 13 11 11 8 9 7 6
Wind_Direction
196 203 214 218 218 235 248 245 239 240 242 252 261 260 260 263 272 279 289 286 287 279 283 281 305 275 180 180 182 178 173 164 167 167 179 195 209 208 226 238 242 241 247 251
188 215 222 218 222 225 237 245 247 253 241 251 248 267 269 261 271 279 275 280 278 289 281 269 240 182 170 165 169 164 161 164 170 167 189 206 208 218 272 261 238 240 244 260
215 220 215 219 220 223 227 235 241 252 262 247 259 266 268 263 256 271 262 264 275 270 278 264 186 167 160 160 160 162 161 161 164 157 160 169 168 225 226 211 219 210 235 239
229 232 217 222 225 218 231 222 244 257 254 251 246 269 264 275 273 261 266 269 256 255 227 185 169 154 156 154 158 154 154 156 155 170 170 190 271 280 57 249 235 233 222 212
222 225 227 218 224 218 236 230 237 239 248 258 247 259 267 261 264 260 260 264 239 233 214 174 162 150 149 149 150 150 149 157 151 167 185 189 239 160 202 231 236 235 224 211
238 213 224 230 217 219 223 221 229 235 241 241 246 254 256 263 261 265 257 249 179 168 147 143 140 146 143 147 148 147 151 153 160 169 169 190 163 219 256 246 259 269 206 207
228 238 235 231 209 200 201 189 194 215 220 242 241 247 251 267 241 259 250 244 153 154 146 145 150 150 148 150 151 150 156 160 163 167 159 161 184 208 239 276 259 285 243 213
224 219 223 207 216 189 195 193 205 215 225 239 222 247 232 242 251 247 250 242 142 162 147 150 153 151 150 153 155 154 163 162 165 163 152 178 180 215 253 244 327 197 202 203
222 232 190 221 213 199 193 212 211 255 229 282 207 228 274 257 254 244 232 213 178 162 151 151 151 154 153 157 157 158 165 159 162 157 168 180 176 233 21 240 241 163 175 160
299 272 222 195 207 204 198 194 202 221 234 225 247 230 239 196 228 229 222 200 174 157 154 154 156 156 156 158 154 160 164 161 161 155 174 172 154 174 163 179 197 139 136 162
282 260 235 184 204 191 198 197 214 212 230 212 230 226 214 243 239 215 193 171 159 163 158 158 157 159 157 159 156 160 168 163 158 165 165 158 134 154 167 149 166 131 158 161
326 285 275 197 201 218 200 208 197 203 198 258 219 212 1 289 35 222 200 150 157 162 157 159 159 161 159 163 157 164 168 165 162 167 160 138 127 144 163 151 123 132 145 129
20 236 235 220 197 205 200 208 194 213 198 208 224 199 233 135 134 138 138 148 154 153 155 159 161 164 165 164 165 165 172 170 160 169 156 137 126 141 147 142 107 112 127 137
230 265 249 197 190 190 209 208 195 210 219 185 212 206 221 161 111 108 125 154 156 161 161 162 164 167 168 166 169 169 176 167 163 170 164 142 134 139 135 131 121 126 115 117
249 266 234 252 291 297 283 210 211 207 218 228 196 221 227 216 111 65 110 162 167 166 168 167 168 169 170 167 171 175 176 169 165 172 167 150 142 143 135 114 106 105 112 104
229 262 271 247 231 246 251 250 215 214 214 224 242 227 244 270 293 297 170 187 182 175 175 172 170 171 173 170 175 176 176 170 167 173 169 160 167 163 144 137 117 128 119 121
274 291 227 237 215 222 246 216 220 220 216 217 221 237 248 245 269 242 244 197 201 186 179 176 176 174 174 172 177 175 174 169 170 175 166 168 172 175 158 148 159 124 124 114
274 293 267 237 195 212 90 42 208 208 216 217 231 240 235 241 270 270 269 198 202 195 186 179 175 174 174 170 177 173 172 172 175 178 171 173 179 169 155 159 130 130 139 131
220 273 274 229 205 199 111 35 345 189 107 16 315 300 296 302 318 281 263 267 223 204 194 183 180 173 171 170 174 175 174 175 179 178 177 177 179 168 155 155 143 148 148 121
202 225 292 272 206 213 50 3 324 284 163 23 345 328 325 312 246 224 14 359 322 218 187 181 176 174 173 170 171 176 177 178 183 179 178 176 178 170 162 153 145 145 147 128
188 211 235 244 264 83 356 334 229 215 71 349 343 335 317 282 290 325 323 321 319 298 203 181 176 179 175 170 170 180 180 182 183 178 175 171 177 172 166 155 150 151 147 110
184 200 181 227 257 183 358 32 321 22 346 348 343 334 320 302 302 298 301 296 286 285 207 182 183 179 175 172 174 181 183 181 181 177 176 171 171 183 165 159 162 159 139 134
214 310 303 334 38 23 351 61 41 7 343 351 336 336 323 311 310 310 300 293 273 251 211 185 187 184 176 176 178 182 180 180 179 178 177 172 172 185 167 169 169 166 172 157
29 3 301 285 50 351 319 22 7 359 343 337 336 330 328 321 318 310 303 292 273 233 207 187 186 188 183 180 183 185 175 179 178 177 177 176 179 181 178 180 177 187 183 180
339 329 329 294 21 359 303 295 328 332 327 332 332 337 333 326 323 318 307 293 277 234 193 192 191 191 192 180 183 182 176 176 177 179 178 179 183 186 180 197 186 196 189 193
23 354 347 333 325 319 288 297 313 319 322 326 327 329 332 333 330 326 313 303 281 237 201 196 194 194 192 188 182 181 180 177 175 179 181 182 184 181 187 190 175 61 24 123